CAPE
485 700 811 1002 914 788 713 676 627 523 481 411 281 225 176 128 77 12 32 89 94 0 0 0 0 0 0 0 5 9 12 54 473 678 524 427 353 186 193 428 630 432 768
522 628 668 805 811 793 820 763 613 481 372 221 221 153 121 98 60 44 139 89 36 0 0 0 0 0 0 0 0 0 0 19 213 621 573 398 477 427 339 450 679 712 890
529 503 528 578 806 885 915 787 605 453 266 190 155 113 68 83 64 138 138 66 39 0 0 0 0 0 0 0 0 0 32 36 23 319 533 100 85 235 214 691 604 842 617
416 351 398 594 787 869 791 627 488 287 225 184 130 60 140 85 58 141 170 89 61 0 0 0 0 0 0 0 0 1 20 139 276 440 41 89 144 195 0 0 0 55 362
199 315 587 668 683 750 657 581 371 263 210 139 104 111 67 41 45 47 205 95 61 0 0 0 0 0 0 0 0 0 12 51 277 44 54 37 60 145 178 3 0 0 58
199 356 504 512 594 775 756 551 318 229 125 116 165 219 91 100 84 79 211 155 6 0 0 0 0 0 0 0 0 0 0 53 0 0 0 48 41 86 33 1 219 110 185
313 340 328 326 538 750 796 474 311 215 163 179 244 246 219 72 55 76 243 201 28 0 0 0 0 0 0 0 0 0 0 23 0 0 0 8 31 75 53 45 69 92 27
214 189 141 244 443 526 598 391 265 219 213 232 248 275 232 220 246 234 287 243 56 0 0 0 0 0 0 0 0 0 0 8 0 0 0 11 167 85 81 51 132 281 475
67 92 154 343 371 385 351 249 222 212 218 256 267 251 253 257 287 326 326 241 27 2 0 0 0 0 0 0 0 0 0 0 0 0 0 0 81 6 0 9 56 134 170
112 99 366 223 195 203 239 212 170 158 166 162 138 110 124 141 164 87 188 201 39 0 0 0 0 0 0 0 0 0 0 0 0 0 0 0 0 0 0 0 7 14 14
124 132 149 173 161 150 154 160 136 145 84 85 88 57 26 5 6 0 0 11 0 0 0 0 0 0 0 0 0 0 0 0 0 0 0 0 0 0 0 0 0 4 3
87 201 206 186 100 81 88 48 37 33 4 22 61 70 71 58 15 0 0 0 0 0 0 0 0 0 0 0 0 0 0 0 0 0 0 0 0 0 0 0 0 1 1
30 169 236 207 38 1 1 1 3 3 0 12 116 144 173 73 4 0 0 0 0 0 0 0 0 0 0 0 0 0 0 0 0 0 0 0 0 0 0 0 0 0 2
110 123 198 160 4 0 0 13 147 169 157 221 309 427 252 285 200 135 4 1 0 0 0 0 0 0 0 0 0 0 0 0 0 0 0 0 0 0 0 0 0 0 0
149 194 214 72 0 0 12 158 196 348 352 475 468 420 398 314 156 16 0 0 0 0 0 0 0 0 0 0 0 0 0 0 0 0 0 0 0 0 0 0 0 0 0
242 243 191 17 3 172 347 322 366 431 475 549 574 495 335 197 155 32 4 0 0 1 0 0 0 0 0 0 0 0 0 0 0 0 0 0 0 0 0 0 0 0 0
90 9 15 25 246 373 326 263 313 321 334 361 122 36 55 12 1 0 6 0 0 0 0 0 0 0 0 0 0 0 0 0 0 0 0 0 0 10 10 0 0 0 0
12 0 29 205 432 343 250 159 163 87 0 5 0 8 4 0 7 0 0 0 0 0 0 0 0 0 0 0 0 0 0 0 0 0 0 0 0 0 9 17 0 0 0
14 3 114 431 468 288 222 128 41 0 0 0 0 4 4 2 0 0 0 0 0 0 0 0 0 0 0 0 0 0 0 0 0 0 0 0 0 0 1 2 1 0 0
118 125 430 505 471 315 166 35 10 0 0 0 0 0 0 6 8 1 0 0 0 0 0 0 0 0 0 0 0 0 0 0 0 0 0 0 0 0 0 3 1 2 0
181 259 475 451 332 117 59 32 60 9 1 0 0 0 0 0 0 0 0 0 0 0 0 0 0 0 0 0 0 0 0 0 0 0 0 0 0 0 0 3 4 6 2
335 412 477 516 275 143 44 52 76 7 0 0 0 0 0 0 0 0 0 0 0 0 0 0 0 0 0 0 0 0 0 0 0 0 0 0 0 0 0 0 3 2 0
456 517 520 558 401 130 48 70 27 0 0 0 0 0 0 0 0 0 0 0 0 0 0 0 0 0 0 0 0 0 0 0 0 0 0 0 0 0 0 0 0 0 0
656 715 675 558 461 162 195 203 3 0 0 0 0 0 0 0 0 0 0 0 0 0 0 0 0 0 0 0 0 0 0 0 0 0 0 0 0 0 0 0 0 0 0
812 814 638 569 410 207 329 35 0 0 0 0 0 0 0 0 0 0 0 0 0 0 0 0 0 0 0 0 0 0 0 0 0 0 0 0 0 0 0 0 0 0 0
841 821 745 572 336 456 485 4 0 0 0 0 0 0 2 2 0 0 0 0 0 0 0 0 0 0 0 0 0 0 0 0 0 0 0 0 0 0 0 0 0 0 0
CIN
-36 -13 -2 -0 -0 -0 -0 -0 -0 -4 -9 -18 -30 -43 -50 -70 -79 -37 -91 -55 -60 -0 -0 -0 -0 -0 -0 -0 -47 -28 -24 -45 -10 -2 -3 -0 -3 -17 -31 -25 -16 -22 -3
-112 -49 -20 -2 -0 -1 -0 -0 -0 -5 -17 -59 -37 -41 -60 -71 -88 -88 -41 -68 -118 -0 -0 -0 -0 -0 -0 -0 -0 -0 -0 -64 -42 -4 -4 -11 -0 -3 -8 -9 -6 -4 -2
-68 -35 -31 -9 -0 -0 -0 -0 -0 -2 -50 -90 -70 -54 -81 -62 -72 -39 -46 -88 -121 -0 -0 -0 -0 -0 -0 -0 -0 -0 -110 -100 -109 -23 -9 -56 -28 -13 -14 -0 -0 -0 -0
-36 -36 -28 -1 -0 -0 -0 -0 -1 -45 -83 -82 -90 -89 -49 -71 -77 -51 -48 -80 -92 -0 -0 -0 -0 -0 -0 -0 -0 -28 -124 -98 -85 -29 -39 -47 -31 -11 -0 -0 -0 -27 -5
-47 -20 -0 -0 -0 -0 -0 -0 -13 -61 -59 -82 -103 -77 -95 -101 -95 -120 -33 -56 -66 -0 -0 -0 -0 -0 -0 -0 -0 -0 -119 -13 -59 -82 -95 -73 -44 -20 -7 -1 -0 -0 -32
-43 -4 -3 -7 -2 -0 -0 -1 -64 -63 -49 -85 -55 -38 -81 -88 -97 -122 -34 -49 -26 -0 -0 -0 -0 -0 -0 -0 -0 -0 -2 -95 -0 -0 -1 -102 -65 -23 -23 -0 -9 -4 -11
-0 -3 -17 -24 -7 -0 -0 -12 -44 -24 -60 -47 -23 -30 -53 -132 -157 -129 -39 -51 -167 -0 -0 -0 -0 -0 -0 -0 -0 -0 -0 -117 -0 -0 -0 -101 -53 -29 -20 -13 -6 -4 -1
-4 -15 -21 -20 -13 -23 -2 -6 -52 -81 -65 -48 -58 -49 -66 -68 -47 -64 -38 -51 -145 -0 -0 -0 -0 -0 -0 -0 -0 -0 -0 -31 -0 -0 -0 -36 -25 -26 -23 -8 -0 -3 -0
-21 -26 -18 -2 -4 -13 -13 -67 -143 -94 -66 -74 -76 -64 -68 -67 -54 -42 -50 -68 -171 -146 -0 -0 -0 -0 -0 -0 -0 -0 -0 -0 -0 -0 -0 -0 -26 -5 -0 -4 -3 -0 -0
-0 -1 -0 -6 -18 -35 -73 -155 -172 -154 -119 -121 -114 -119 -171 -123 -119 -180 -96 -73 -138 -0 -0 -0 -0 -0 -0 -0 -0 -0 -0 -0 -0 -0 -0 -0 -0 -0 -0 -0 -0 -0 -0
-1 -3 -7 -28 -62 -92 -105 -120 -155 -126 -203 -234 -232 -255 -265 -127 -290 -0 -0 -151 -0 -0 -0 -0 -0 -0 -0 -0 -0 -0 -0 -0 -0 -0 -0 -0 -0 -0 -0 -0 -0 -0 -0
-17 -0 -14 -34 -110 -120 -121 -177 -206 -279 -193 -148 -79 -88 -119 -102 -103 -0 -0 -0 -0 -0 -0 -0 -0 -0 -0 -0 -0 -0 -0 -0 -0 -0 -0 -0 -0 -0 -0 -0 -0 -0 -0
-16 -19 -33 -39 -156 -39 -35 -42 -356 -327 -0 -174 -58 -57 -43 -129 -27 -0 -0 -0 -0 -0 -0 -0 -0 -0 -0 -0 -0 -0 -0 -0 -0 -0 -0 -0 -0 -0 -0 -0 -0 -0 -0
-44 -27 -18 -43 -73 -0 -2 -232 -68 -85 -65 -41 -16 -10 -23 -12 -9 -8 -10 -5 -0 -0 -0 -0 -0 -0 -0 -0 -0 -0 -0 -0 -0 -0 -0 -0 -0 -0 -0 -0 -0 -0 -0
-5 -5 -9 -57 -0 -0 -202 -76 -64 -21 -23 -17 -12 -10 -6 -4 -1 -26 -0 -0 -0 -0 -0 -0 -0 -0 -0 -0 -0 -0 -0 -0 -0 -0 -0 -0 -1 -0 -0 -0 -0 -0 -0
-4 -4 -5 -204 -174 -115 -50 -66 -42 -17 -37 -32 -15 -3 -2 -4 -2 -49 -51 -3 -0 -0 -0 -0 -0 -0 -0 -0 -0 -0 -0 -0 -0 -0 -0 -0 -0 -0 -0 -0 -0 -0 -0
-38 -126 -193 -179 -78 -23 -28 -46 -49 -59 -76 -52 -113 -102 -64 -44 -32 -0 -44 -2 -0 -0 -0 -0 -0 -0 -0 -0 -0 -0 -0 -0 -0 -0 -0 -0 -0 -68 -60 -0 -0 -0 -0
-179 -0 -201 -116 -34 -32 -44 -73 -61 -92 -28 -202 -0 -168 -112 -0 -80 -0 -0 -0 -0 -0 -0 -0 -0 -0 -0 -0 -0 -0 -0 -0 -0 -0 -0 -0 -0 -0 -42 -13 -0 -0 -0
-73 -118 -171 -58 -38 -56 -77 -78 -109 -0 -0 -0 -0 -148 -108 -42 -0 -0 -0 -0 -0 -0 -0 -0 -0 -0 -0 -0 -0 -0 -0 -0 -0 -0 -0 -0 -0 -0 -0 -13 -0 -0 -0
-103 -197 -97 -64 -59 -72 -56 -80 -36 -0 -0 -0 -0 -0 -0 -42 -27 -8 -0 -0 -0 -0 -0 -0 -0 -0 -0 -0 -0 -0 -0 -0 -0 -0 -0 -0 -0 -0 -0 -0 -0 -0 -0
-88 -187 -131 -86 -67 -61 -62 -13 -1 -35 -42 -0 -0 -0 -0 -0 -0 -0 -0 -0 -0 -0 -0 -0 -0 -0 -0 -0 -0 -0 -0 -0 -0 -0 -0 -0 -0 -0 -1 -0 -0 -0 -0
-87 -119 -97 -44 -51 -50 -28 -11 -2 -52 -0 -0 -0 -0 -0 -0 -0 -0 -0 -0 -0 -0 -0 -0 -0 -0 -0 -0 -0 -0 -0 -0 -0 -0 -0 -0 -0 -0 -0 -0 -0 -0 -0
-42 -84 -57 -62 -42 -56 -33 -32 -39 -0 -0 -0 -0 -0 -0 -0 -0 -0 -0 -0 -0 -0 -0 -0 -0 -0 -0 -0 -0 -0 -0 -0 -0 -0 -0 -0 -0 -0 -0 -0 -0 -0 -0
-30 -25 -20 -62 -44 -52 -34 -31 -24 -0 -0 -0 -0 -0 -0 -0 -0 -0 -0 -0 -0 -0 -0 -0 -0 -0 -0 -0 -0 -0 -0 -0 -0 -0 -0 -0 -0 -0 -0 -0 -0 -0 -0
-27 -12 -43 -13 -14 -81 -17 -85 -0 -0 -0 -0 -0 -0 -0 -0 -0 -0 -0 -0 -0 -0 -0 -0 -0 -0 -0 -0 -0 -0 -0 -0 -0 -0 -0 -0 -0 -0 -0 -0 -0 -0 -0
-35 -15 -6 -9 -68 -22 -8 -45 -16 -0 -0 -0 -0 -0 -1 -0 -0 -0 -0 -0 -0 -0 -0 -0 -0 -0 -0 -0 -0 -0 -0 -0 -0 -0 -0 -0 -0 -0 -0 -0 -0 -0 -0
Wind_Speed
42 56 58 55 54 52 51 50 51 52 53 51 49 44 36 32 nan nan nan nan nan nan nan nan nan nan nan nan nan nan nan nan 13 17 21 25 23 21 23 25 24 21 25
55 58 53 55 50 51 50 50 55 55 54 50 46 40 34 nan nan nan 26 nan nan nan nan nan nan nan nan nan nan nan nan nan 12 14 18 22 22 22 22 21 20 21 27
48 50 50 47 52 53 52 54 54 57 57 46 39 34 nan nan nan 29 27 nan nan nan nan nan nan nan nan nan nan nan nan nan nan 20 20 16 nan 24 22 21 22 21 24
52 54 54 59 56 56 57 54 57 60 45 41 38 nan 34 nan nan 31 28 nan nan nan nan nan nan nan nan nan nan nan nan 24 27 22 nan nan 21 27 nan nan nan nan 25
54 54 56 62 62 60 60 59 61 62 49 39 37 34 nan nan nan nan 28 nan nan nan nan nan nan nan nan nan nan nan nan nan 21 nan nan nan nan 27 29 nan nan nan nan
60 54 54 59 64 64 62 62 57 53 57 37 33 34 nan 35 nan nan 29 28 nan nan nan nan nan nan nan nan nan nan nan nan nan nan nan nan nan nan nan nan 30 31 32
59 41 53 60 65 63 61 49 55 52 39 34 30 29 30 nan nan nan 30 29 nan nan nan nan nan nan nan nan nan nan nan nan nan nan nan nan nan nan nan nan nan nan nan
37 50 47 39 57 65 54 49 33 28 26 22 23 22 28 28 27 30 31 31 nan nan nan nan nan nan nan nan nan nan nan nan nan nan nan nan 37 nan nan nan 32 33 34
nan nan 62 44 47 41 33 25 21 19 16 17 22 20 19 20 26 31 31 32 nan nan nan nan nan nan nan nan nan nan nan nan nan nan nan nan nan nan nan nan nan 37 37
51 nan 32 32 31 18 11 11 18 13 12 14 16 13 18 23 29 nan 29 28 nan nan nan nan nan nan nan nan nan nan nan nan nan nan nan nan nan nan nan nan nan nan nan
43 17 14 23 13 6 1 1 5 11 nan nan nan nan nan nan nan nan nan nan nan nan nan nan nan nan nan nan nan nan nan nan nan nan nan nan nan nan nan nan nan nan nan
nan 53 15 5 5 nan nan nan nan nan nan nan nan nan nan nan nan nan nan nan nan nan nan nan nan nan nan nan nan nan nan nan nan nan nan nan nan nan nan nan nan nan nan
nan 23 12 19 nan nan nan nan nan nan nan nan 14 15 17 nan nan nan nan nan nan nan nan nan nan nan nan nan nan nan nan nan nan nan nan nan nan nan nan nan nan nan nan
9 24 19 10 nan nan nan nan 7 7 11 11 14 16 20 24 22 19 nan nan nan nan nan nan nan nan nan nan nan nan nan nan nan nan nan nan nan nan nan nan nan nan nan
20 16 10 nan nan nan nan 5 11 10 14 14 19 21 23 25 19 nan nan nan nan nan nan nan nan nan nan nan nan nan nan nan nan nan nan nan nan nan nan nan nan nan nan
6 4 0 nan nan 6 7 14 12 12 14 15 18 14 19 26 31 nan nan nan nan nan nan nan nan nan nan nan nan nan nan nan nan nan nan nan nan nan nan nan nan nan nan
nan nan nan nan 7 11 13 14 13 15 17 23 24 nan nan nan nan nan nan nan nan nan nan nan nan nan nan nan nan nan nan nan nan nan nan nan nan nan nan nan nan nan nan
nan nan nan 12 15 14 17 17 17 nan nan nan nan nan nan nan nan nan nan nan nan nan nan nan nan nan nan nan nan nan nan nan nan nan nan nan nan nan nan nan nan nan nan
nan nan 14 20 20 19 24 24 nan nan nan nan nan nan nan nan nan nan nan nan nan nan nan nan nan nan nan nan nan nan nan nan nan nan nan nan nan nan nan nan nan nan nan
16 21 24 25 22 22 24 nan nan nan nan nan nan nan nan nan nan nan nan nan nan nan nan nan nan nan nan nan nan nan nan nan nan nan nan nan nan nan nan nan nan nan nan
23 27 30 33 27 27 nan nan nan nan nan nan nan nan nan nan nan nan nan nan nan nan nan nan nan nan nan nan nan nan nan nan nan nan nan nan nan nan nan nan nan nan nan
25 28 33 38 37 29 nan nan nan nan nan nan nan nan nan nan nan nan nan nan nan nan nan nan nan nan nan nan nan nan nan nan nan nan nan nan nan nan nan nan nan nan nan
33 33 34 36 36 28 nan nan nan nan nan nan nan nan nan nan nan nan nan nan nan nan nan nan nan nan nan nan nan nan nan nan nan nan nan nan nan nan nan nan nan nan nan
31 36 36 32 30 24 20 24 nan nan nan nan nan nan nan nan nan nan nan nan nan nan nan nan nan nan nan nan nan nan nan nan nan nan nan nan nan nan nan nan nan nan nan
37 34 30 22 23 21 23 nan nan nan nan nan nan nan nan nan nan nan nan nan nan nan nan nan nan nan nan nan nan nan nan nan nan nan nan nan nan nan nan nan nan nan nan
36 29 23 23 22 26 33 nan nan nan nan nan nan nan nan nan nan nan nan nan nan nan nan nan nan nan nan nan nan nan nan nan nan nan nan nan nan nan nan nan nan nan nan
Wind_Direction
273 281 268 269 271 276 280 282 282 280 281 280 282 281 277 256 nan nan nan nan nan nan nan nan nan nan nan nan nan nan nan nan 264 279 269 260 254 254 254 255 261 269 269
291 289 287 285 275 276 276 278 278 278 278 277 277 278 268 nan nan nan 240 nan nan nan nan nan nan nan nan nan nan nan nan nan 301 285 275 267 260 258 253 256 256 269 268
285 288 294 288 288 283 276 275 276 275 276 273 268 272 nan nan nan 243 242 nan nan nan nan nan nan nan nan nan nan nan nan nan nan 309 303 298 nan 258 255 261 259 260 262
280 281 280 286 284 281 277 275 274 274 267 274 269 nan 248 nan nan 243 246 nan nan nan nan nan nan nan nan nan nan nan nan 248 313 315 nan nan 278 260 nan nan nan nan 260
279 278 281 283 281 281 280 277 272 271 268 271 271 261 nan nan nan nan 248 nan nan nan nan nan nan nan nan nan nan nan nan nan 289 nan nan nan nan 265 258 nan nan nan nan
281 277 279 281 283 277 275 275 270 261 268 262 265 259 nan 245 nan nan 258 263 nan nan nan nan nan nan nan nan nan nan nan nan nan nan nan nan nan nan nan nan 261 260 260
262 273 283 285 277 272 269 258 261 265 256 263 256 252 248 nan nan nan 265 268 nan nan nan nan nan nan nan nan nan nan nan nan nan nan nan nan nan nan nan nan nan nan nan
251 283 272 262 267 262 247 254 256 260 267 266 260 249 247 252 263 274 276 281 nan nan nan nan nan nan nan nan nan nan nan nan nan nan nan nan 299 nan nan nan 270 267 266
nan nan 262 254 244 232 230 250 256 263 262 268 261 253 258 273 275 271 280 291 nan nan nan nan nan nan nan nan nan nan nan nan nan nan nan nan nan nan nan nan nan 268 265
222 nan 238 223 221 219 247 281 262 266 288 279 276 307 289 281 280 nan 291 296 nan nan nan nan nan nan nan nan nan nan nan nan nan nan nan nan nan nan nan nan nan nan nan
256 272 225 214 208 246 113 194 303 317 nan nan nan nan nan nan nan nan nan nan nan nan nan nan nan nan nan nan nan nan nan nan nan nan nan nan nan nan nan nan nan nan nan
nan 256 223 195 56 nan nan nan nan nan nan nan nan nan nan nan nan nan nan nan nan nan nan nan nan nan nan nan nan nan nan nan nan nan nan nan nan nan nan nan nan nan nan
nan 160 21 54 nan nan nan nan nan nan nan nan 313 324 320 nan nan nan nan nan nan nan nan nan nan nan nan nan nan nan nan nan nan nan nan nan nan nan nan nan nan nan nan
0 49 46 31 nan nan nan nan 283 277 293 297 314 304 300 301 297 313 nan nan nan nan nan nan nan nan nan nan nan nan nan nan nan nan nan nan nan nan nan nan nan nan nan
24 15 16 nan nan nan nan 307 298 303 285 299 288 296 302 299 280 nan nan nan nan nan nan nan nan nan nan nan nan nan nan nan nan nan nan nan nan nan nan nan nan nan nan
342 1 287 nan nan 282 298 281 285 292 283 275 302 287 303 317 274 nan nan nan nan nan nan nan nan nan nan nan nan nan nan nan nan nan nan nan nan nan nan nan nan nan nan
nan nan nan nan 289 296 288 295 303 299 296 299 304 nan nan nan nan nan nan nan nan nan nan nan nan nan nan nan nan nan nan nan nan nan nan nan nan nan nan nan nan nan nan
nan nan nan 318 303 302 300 301 302 nan nan nan nan nan nan nan nan nan nan nan nan nan nan nan nan nan nan nan nan nan nan nan nan nan nan nan nan nan nan nan nan nan nan
nan nan 327 307 315 302 297 307 nan nan nan nan nan nan nan nan nan nan nan nan nan nan nan nan nan nan nan nan nan nan nan nan nan nan nan nan nan nan nan nan nan nan nan
312 316 315 307 303 293 306 nan nan nan nan nan nan nan nan nan nan nan nan nan nan nan nan nan nan nan nan nan nan nan nan nan nan nan nan nan nan nan nan nan nan nan nan
321 322 315 311 308 314 nan nan nan nan nan nan nan nan nan nan nan nan nan nan nan nan nan nan nan nan nan nan nan nan nan nan nan nan nan nan nan nan nan nan nan nan nan
327 316 317 322 327 329 nan nan nan nan nan nan nan nan nan nan nan nan nan nan nan nan nan nan nan nan nan nan nan nan nan nan nan nan nan nan nan nan nan nan nan nan nan
331 322 322 322 326 331 nan nan nan nan nan nan nan nan nan nan nan nan nan nan nan nan nan nan nan nan nan nan nan nan nan nan nan nan nan nan nan nan nan nan nan nan nan
319 322 324 324 325 330 323 314 nan nan nan nan nan nan nan nan nan nan nan nan nan nan nan nan nan nan nan nan nan nan nan nan nan nan nan nan nan nan nan nan nan nan nan
316 320 321 326 329 313 312 nan nan nan nan nan nan nan nan nan nan nan nan nan nan nan nan nan nan nan nan nan nan nan nan nan nan nan nan nan nan nan nan nan nan nan nan
310 315 322 319 315 312 311 nan nan nan nan nan nan nan nan nan nan nan nan nan nan nan nan nan nan nan nan nan nan nan nan nan nan nan nan nan nan nan nan nan nan nan nan